Wind_Speed
11 12 13 11 11 12 12 12 13 12 14 14 18 19 18 18 19 21 24 26 27 28 27 25 25 21 15 9 22 19 14 11 3 8 19 19 23 21 24 22 22 22 24 21 18 20 17
9 11 12 12 13 12 13 13 14 13 16 15 17 18 18 18 21 23 25 27 29 29 29 29 24 15 10 17 16 15 10 8 6 9 16 21 17 19 20 23 22 20 19 22 23 19 18
13 13 9 10 12 13 16 15 14 14 15 16 18 18 18 20 21 24 27 30 31 31 31 29 19 10 12 22 15 17 18 19 13 12 16 20 22 14 20 18 19 19 21 19 19 22 21
13 14 14 14 13 13 15 15 15 15 16 16 18 19 19 20 21 25 28 32 32 33 28 16 11 11 9 14 17 23 22 20 17 14 18 23 22 19 19 13 15 16 21 19 21 23 20
14 15 16 15 16 14 15 18 21 17 18 18 19 19 19 20 21 25 29 32 32 20 11 9 7 10 10 1 8 14 21 18 10 11 17 18 20 18 19 17 16 20 16 22 21 11 10
16 16 16 15 16 17 16 15 18 19 18 18 18 18 18 19 22 24 29 26 20 11 7 8 11 7 7 7 8 4 5 2 8 2 15 16 12 17 19 17 18 19 20 19 19 12 13
16 17 18 17 16 17 14 13 16 18 15 19 18 17 17 19 21 24 23 25 3 7 8 13 12 13 26 15 10 11 8 8 4 2 16 21 17 22 25 24 22 22 18 16 11 12 10
18 17 17 17 18 16 15 15 17 17 14 16 18 17 16 18 20 19 16 6 4 7 14 19 22 23 28 24 22 15 3 10 6 16 16 22 25 23 23 23 25 25 23 18 17 6 8
18 18 18 20 18 18 21 20 17 18 15 16 16 16 15 17 18 12 9 5 8 11 8 10 5 7 6 9 21 21 12 7 10 13 19 24 22 23 22 22 26 23 23 20 19 7 10
19 19 18 19 21 21 20 17 15 17 18 17 16 14 14 16 11 7 10 5 11 10 6 7 3 2 3 4 4 19 21 11 6 10 13 18 29 11 22 27 22 22 20 20 18 14 13
19 19 18 19 21 18 17 18 17 18 19 15 14 13 12 10 14 12 8 10 10 6 6 4 7 4 3 6 9 5 18 16 14 8 5 9 17 20 23 24 23 21 17 16 18 16 16
22 20 19 20 20 22 24 24 21 20 17 16 15 13 11 13 12 11 10 10 9 6 7 3 3 1 7 10 7 3 16 15 4 9 19 23 27 16 19 23 17 17 18 17 11 14 15
23 23 23 22 22 24 24 24 23 18 15 17 16 14 11 11 11 3 6 11 6 7 3 3 1 6 13 17 5 12 11 19 10 4 14 19 23 23 25 18 21 25 14 9 11 13 14
25 24 25 24 24 24 24 23 19 16 16 15 15 14 14 15 14 12 9 8 10 8 10 3 8 12 17 10 6 13 11 14 18 12 7 9 13 20 17 19 18 20 21 12 11 11 13
25 25 24 23 23 23 22 19 17 15 17 15 14 16 18 17 15 12 5 11 7 10 11 4 11 15 14 3 4 7 15 13 11 19 9 8 12 16 20 13 17 21 21 20 14 6 9
25 25 24 25 23 23 24 21 21 18 16 13 14 14 18 16 17 13 6 15 14 9 5 5 11 7 11 5 6 5 6 3 4 5 16 16 18 13 18 15 18 20 15 20 15 9 8
25 25 25 23 22 21 21 22 20 20 17 12 12 4 8 18 17 6 11 17 15 16 10 9 12 12 11 11 7 4 1 4 10 11 17 22 17 8 22 15 21 17 18 14 14 13 8
25 25 24 23 23 22 22 21 21 17 17 12 13 5 5 17 9 8 10 18 18 11 13 17 16 15 15 15 11 7 1 4 5 12 12 15 6 13 15 25 23 21 19 17 10 16 15
26 25 24 22 22 21 20 21 21 18 19 14 5 8 7 16 9 13 15 17 19 15 17 17 18 20 16 16 8 10 4 4 4 13 10 9 8 13 6 9 18 24 23 20 14 10 9
26 25 24 24 20 23 23 21 22 21 20 18 3 4 8 8 10 15 17 16 18 18 20 16 16 15 16 14 16 8 5 7 7 4 16 12 11 13 13 7 12 17 18 19 18 12 15
26 26 25 24 24 20 22 20 20 21 21 18 4 5 6 8 14 17 17 8 20 18 14 16 18 19 14 13 17 18 16 14 6 7 5 10 6 10 15 8 5 8 10 14 16 15 13
28 27 25 24 24 24 24 22 25 22 22 22 5 6 8 12 13 16 19 19 16 14 15 15 17 18 17 18 17 18 12 8 8 3 0 6 3 10 13 10 5 8 10 11 13 10 10
32 32 30 26 25 24 22 22 25 24 26 14 14 17 7 7 15 11 11 19 17 18 18 15 21 15 15 12 12 13 11 10 10 8 2 4 3 6 2 1 4 8 12 8 10 14 13
35 34 32 31 30 28 26 27 27 29 30 23 14 12 7 10 12 14 17 14 16 13 16 11 18 12 1 5 9 11 12 14 14 15 11 5 7 3 4 6 5 5 2 16 11 3 4
38 35 32 33 34 35 35 34 33 31 31 30 25 12 7 11 15 18 16 13 9 9 10 18 14 3 6 6 6 9 10 10 15 18 16 14 6 3 2 3 6 9 3 4 13 8 6
35 32 27 28 31 33 36 38 38 37 35 33 30 25 7 3 13 18 16 17 12 10 10 14 4 6 6 3 5 6 7 8 8 7 18 16 12 7 6 3 4 4 12 7 9 5 7
30 28 27 25 24 26 32 39 40 41 40 37 26 31 14 6 15 9 12 10 13 13 7 9 8 5 4 3 5 6 6 4 5 11 13 12 11 13 9 5 4 10 3 1 10 4 6
31 30 27 26 26 26 26 32 34 42 43 40 33 28 26 3 15 18 16 13 14 7 5 7 5 4 3 5 4 4 4 5 3 4 11 11 9 7 10 9 11 5 3 4 6 7 9
34 32 31 29 26 25 26 26 31 37 47 46 22 31 27 7 5 15 32 24 16 9 6 6 2 2 4 4 5 2 4 1 5 4 10 6 7 5 9 7 8 11 14 10 8 8 9
Wind_Direction
314 317 321 328 323 318 318 319 318 325 326 328 322 322 325 329 324 321 321 321 321 320 318 320 318 318 332 272 252 287 333 329 269 221 230 233 225 227 227 232 239 234 245 258 248 258 259
304 299 299 310 313 307 310 312 317 319 323 326 320 320 325 326 325 322 320 317 317 316 315 314 307 304 278 275 277 266 281 313 283 224 228 238 228 229 241 242 250 248 247 254 261 253 249
301 305 316 291 297 302 301 301 299 307 320 322 322 325 324 325 325 320 319 317 315 313 310 304 295 264 255 250 280 272 270 280 284 275 267 255 245 247 235 257 259 258 261 252 250 252 256
294 295 300 299 309 292 297 306 313 313 312 318 313 317 325 324 325 322 321 315 310 309 303 295 276 228 261 266 278 268 261 263 251 254 255 266 273 261 256 265 244 253 241 255 250 234 235
303 299 298 291 293 295 291 292 300 306 311 308 317 315 320 322 324 325 320 314 311 307 299 291 204 223 271 359 245 273 253 252 247 291 255 250 253 249 237 239 244 236 241 233 245 222 245
295 301 295 286 291 294 288 291 301 299 300 303 311 316 316 317 321 326 320 314 309 280 260 247 256 234 254 279 338 263 249 185 235 320 277 232 236 235 230 221 226 228 223 243 265 206 209
290 290 293 294 294 287 282 289 300 296 294 300 305 313 315 315 320 326 324 322 223 208 269 274 283 257 289 308 306 260 223 237 198 144 252 225 226 226 226 226 241 258 254 268 246 247 207
286 284 291 287 284 286 289 288 294 298 291 296 301 307 310 315 319 323 306 10 355 321 293 279 259 264 269 272 278 270 193 225 190 227 244 236 225 232 238 238 232 246 255 257 265 222 228
284 284 287 291 290 284 283 282 281 288 295 292 298 302 309 310 318 296 311 351 309 316 271 302 281 273 305 237 243 245 191 195 203 224 236 244 239 220 240 231 240 232 241 245 256 227 242
281 281 282 285 288 282 278 275 270 288 284 284 293 298 309 312 293 310 294 313 311 314 277 149 164 148 194 238 242 233 208 178 168 247 252 257 241 225 218 238 231 239 230 248 262 264 258
286 284 283 284 285 288 280 277 277 280 281 289 291 294 299 301 301 290 331 309 303 272 288 117 126 85 117 245 328 146 204 183 203 190 234 264 247 245 234 224 234 241 246 243 240 253 261
283 283 284 282 279 283 282 279 272 277 271 288 287 291 297 283 251 264 294 302 278 244 251 151 154 215 226 215 233 111 192 226 250 211 255 263 283 286 266 240 245 248 232 249 239 244 241
288 286 283 278 277 277 275 273 269 260 266 284 278 282 277 270 267 313 287 283 231 241 100 160 96 303 296 293 286 196 182 197 196 205 231 258 260 256 269 234 219 241 212 212 219 225 236
288 288 285 276 276 275 276 268 263 253 270 272 278 275 266 251 251 255 260 228 236 273 213 309 314 301 285 285 260 188 190 203 211 197 281 216 248 241 255 218 212 208 208 211 204 213 224
289 286 284 276 274 274 275 281 264 255 264 267 273 268 248 244 233 228 222 218 237 248 274 287 296 276 278 206 287 213 212 205 216 224 222 226 227 248 284 226 241 213 224 242 267 272 274
288 286 285 276 273 274 272 263 263 260 258 250 267 263 248 232 214 209 209 231 249 254 301 253 265 273 277 321 303 251 211 15 4 301 238 261 272 211 242 230 239 254 221 220 232 229 231
284 283 280 275 274 272 272 270 261 259 241 241 252 250 255 197 190 205 225 221 236 258 255 237 261 261 273 284 293 285 240 101 3 334 307 240 247 280 200 217 215 231 236 225 229 231 231
283 281 277 275 271 266 258 264 261 253 222 227 238 228 166 173 194 210 228 224 254 261 242 252 260 275 276 279 280 276 178 29 45 328 306 248 258 263 244 198 216 232 221 210 217 222 226
282 277 274 272 273 264 260 252 252 235 218 227 233 233 201 185 211 223 231 238 244 235 247 240 237 244 259 268 274 250 200 162 35 339 346 346 238 253 262 287 203 211 231 233 229 248 228
281 277 271 268 276 260 255 269 247 233 225 226 243 223 215 208 241 258 230 229 233 228 249 259 271 256 248 252 252 259 250 178 182 280 315 289 249 241 239 231 211 212 221 219 214 220 231
282 279 270 263 263 254 253 234 234 231 218 208 217 235 216 205 226 234 243 250 231 223 220 230 239 253 238 254 264 263 262 278 202 139 317 321 297 305 253 268 281 224 228 215 221 227 229
282 280 274 262 256 250 247 237 235 225 217 214 207 219 247 259 237 226 225 238 242 244 249 227 242 239 241 248 254 261 257 280 286 142 308 325 292 293 234 240 266 251 225 255 269 264 252
280 277 271 263 253 247 239 236 235 225 211 210 222 246 265 266 238 223 235 235 236 249 262 250 257 250 257 262 291 293 294 258 271 288 274 181 290 323 146 336 305 278 242 214 239 233 235
277 274 267 261 253 245 239 236 237 223 215 220 208 222 229 247 252 250 231 215 241 240 264 280 257 245 318 332 298 262 260 253 245 246 235 243 222 220 326 303 197 204 290 207 219 219 145
280 272 266 257 250 244 239 232 232 226 218 214 222 220 226 247 246 246 253 245 250 250 259 254 258 14 50 319 277 251 230 233 233 231 221 212 238 231 185 287 314 277 45 160 157 129 52
282 280 274 258 251 243 238 233 229 224 218 217 225 217 230 264 239 243 239 243 240 251 257 245 140 98 86 263 230 235 215 207 184 175 201 200 211 242 195 213 194 273 142 202 326 120 65
281 277 273 267 257 247 237 231 227 224 216 212 221 215 217 248 251 278 253 240 244 231 268 215 156 163 143 261 239 240 231 210 202 164 184 190 195 218 233 242 270 152 108 348 198 152 48
277 273 272 264 258 248 240 229 222 219 213 205 218 212 205 233 260 260 255 262 261 230 237 136 122 184 178 230 245 226 235 232 230 134 163 180 191 198 230 227 241 7 188 299 45 64 37
273 270 270 266 256 240 234 231 222 217 209 204 213 209 207 219 267 290 246 258 276 322 322 169 237 175 209 249 245 250 262 184 248 198 177 188 203 191 197 210 119 69 79 70 44 46 33
Height
849 849 848 845 843 843 842 839 836 833 833 831 831 828 824 819 818 816 813 810 806 802 798 794 791 787 783 772 759 755 754 754 751 753 751 744 741 739 741 731 727 730 725 720 715 715 716
845 845 845 845 844 841 842 839 835 832 830 828 828 826 822 819 816 813 810 807 802 797 794 790 788 786 784 774 753 754 755 753 750 750 747 743 736 731 731 728 724 719 720 720 716 712 713
846 843 840 840 841 840 841 838 836 831 827 825 824 823 819 817 814 811 806 802 797 793 788 785 783 783 778 757 752 752 752 752 751 748 746 740 736 731 728 729 720 719 726 717 714 710 711
844 844 840 838 837 838 837 837 834 832 826 824 822 821 818 815 811 808 803 798 793 788 784 780 778 778 761 748 748 748 749 748 745 746 748 744 739 732 730 722 721 727 724 730 706 702 702
841 841 840 837 836 833 834 835 832 828 825 824 820 818 815 814 809 806 800 792 786 783 779 777 777 772 750 745 745 743 747 744 744 742 741 744 741 737 734 735 732 723 727 718 708 690 698
838 838 836 835 834 832 829 829 829 827 824 822 819 817 814 812 809 803 797 787 782 781 778 775 771 770 747 741 737 741 744 743 743 742 740 741 739 737 733 728 733 721 716 711 706 689 699
834 833 833 832 831 830 828 826 827 824 820 821 819 815 813 811 808 802 795 781 778 771 774 761 751 745 736 737 741 739 740 742 741 745 760 734 737 728 724 721 714 706 699 700 691 680 697
830 830 828 827 828 826 826 825 825 821 819 817 817 815 812 809 806 800 794 784 795 797 778 757 751 746 743 744 743 739 743 743 745 748 751 732 723 718 715 715 715 711 708 704 693 684 702
826 825 824 825 822 822 823 822 823 820 818 815 814 813 810 808 803 798 793 790 795 794 775 742 738 736 734 736 735 735 738 740 748 753 750 737 713 713 715 714 711 707 709 705 703 687 696
821 820 820 820 819 818 818 817 818 819 816 813 812 811 809 805 803 796 789 793 794 793 769 728 729 730 732 735 734 730 731 741 755 756 752 731 711 710 716 716 702 708 696 699 701 705 712
816 816 816 815 815 814 814 814 814 814 814 811 810 809 806 806 799 795 791 793 793 792 748 725 726 729 731 732 726 723 730 737 745 755 755 742 719 713 716 708 699 701 694 696 700 706 704
812 811 811 811 810 811 810 811 810 809 809 808 807 806 803 801 800 795 794 793 791 777 741 723 720 722 727 721 724 724 729 737 740 752 755 746 727 726 706 698 698 690 699 699 700 704 716
808 807 806 805 805 805 805 805 805 804 805 805 804 804 802 800 795 795 794 792 771 754 720 719 720 720 720 714 711 721 735 741 744 755 746 739 729 717 710 702 701 697 705 718 722 717 716
802 801 800 799 800 800 800 798 800 801 800 800 801 800 798 795 794 796 795 782 763 726 723 711 720 720 717 706 706 714 724 735 738 743 744 740 738 713 697 690 695 689 694 699 714 710 695
797 795 794 794 795 795 795 794 795 796 797 797 797 795 792 790 791 793 792 769 737 729 721 725 726 722 712 708 715 706 715 719 728 732 746 724 724 705 702 687 691 692 693 677 689 692 688
791 789 788 788 788 788 789 790 791 792 793 794 793 787 783 782 786 790 789 765 738 733 734 733 732 720 720 710 717 714 713 727 730 725 727 720 719 698 706 694 690 689 674 699 688 715 714
785 784 783 782 782 781 784 785 785 787 789 791 790 783 770 774 782 786 772 755 745 736 734 738 730 723 722 720 718 725 724 732 738 732 722 708 710 702 691 700 693 693 684 678 677 683 698
778 777 776 776 777 777 778 779 781 782 786 788 782 779 767 771 779 768 767 754 745 740 735 737 735 733 729 723 722 721 735 731 742 740 723 702 703 705 687 672 678 678 674 673 685 690 677
771 770 770 770 770 770 772 774 776 777 781 779 779 768 767 771 763 756 752 744 741 740 735 731 730 730 726 726 729 714 725 735 740 739 731 736 708 708 701 685 666 680 673 668 672 681 708
764 763 763 763 762 761 766 767 769 773 775 779 777 767 760 764 758 747 744 742 739 737 735 731 729 723 723 730 725 720 719 731 733 741 737 728 710 702 692 681 667 673 665 662 671 686 686
756 756 755 755 755 756 759 761 764 767 771 776 773 760 750 753 749 745 742 737 730 726 730 728 728 725 729 733 728 722 717 718 719 733 734 724 719 704 682 687 672 670 668 664 668 671 681
748 747 747 748 749 750 752 755 757 761 766 769 766 759 750 744 736 738 737 734 732 722 724 727 725 721 721 722 722 720 714 718 723 720 729 734 724 723 696 678 678 676 670 672 671 672 674
739 738 738 739 741 743 745 747 751 755 760 760 762 759 756 744 736 738 736 728 730 730 725 726 724 719 719 724 727 724 720 723 721 722 725 730 732 727 708 701 693 696 680 677 679 673 673
728 727 727 729 731 734 737 740 743 748 752 756 755 757 758 748 739 725 727 737 732 729 731 730 718 722 727 733 729 725 724 721 721 721 720 722 726 723 721 711 714 684 660 669 679 677 672
716 714 714 715 718 722 726 731 735 740 746 750 751 754 750 745 730 726 724 726 727 729 733 730 727 729 737 738 735 722 714 715 713 710 712 716 717 718 723 715 710 682 680 680 686 689 677
705 704 703 703 706 709 714 719 725 731 738 744 745 750 752 745 728 720 720 721 725 727 731 726 737 738 743 743 731 712 701 695 695 696 702 707 713 714 710 717 712 693 680 683 678 699 683
694 694 694 695 697 698 702 707 713 720 728 736 737 744 750 744 732 731 725 720 717 719 724 719 734 741 746 738 725 706 696 686 691 699 701 703 709 712 709 700 687 676 679 681 697 714 691
684 684 684 685 687 689 692 696 702 709 719 728 730 736 743 743 734 730 726 725 718 721 729 726 735 740 744 732 718 701 698 691 686 681 692 697 703 706 705 704 705 680 681 692 699 694 699
671 672 673 674 677 680 683 688 691 699 706 718 725 731 738 741 734 729 725 722 723 725 729 731 728 731 727 719 711 702 694 695 682 684 682 690 687 687 690 690 685 686 696 701 702 703 706